[[{"header":{"parameterUnit":"m.s-1","parameterCategory":2,"la1":30.2991,"la2":30.254,"lo1":-89.0895,"lo2":-89.0444,"dy":0.0017,"dx":0.0017,"nx":28,"ny":28,"refTime":"2024-10-15T03:00:00:Z","depth":"0","parameterNumber":2,"parameterNumberName":"U-component_of_CURRENTS"},"data":[0,0,0,0,0,0,0,0,0,0,0,0,0,0,0,0,0,0,0,0,0,0,0,0,0,0,0,0,0,0,0,0,0,0,0,0,0,0,0,0,0,0,0,0,0,0,0,0,0,0,0,0,0,0,0,0,0,0,0.1829,0.1829,0,0.1852,0.1852,0.1853,0.1873,0.1874,0.1874,0.1874,0.192,0.1921,0.1922,0,0,0,0,0,0,0,0,0,0,0,0,0,0.1805,0.1805,0.1829,0.1829,0.1829,0.1852,0.1852,0.1853,0.1873,0.1874,0.1874,0.1874,0.1919,0.1921,0.1922,0,0,0,0,0,0,0,0,0,0,0,0,0,0.1822,0.1805,0.1829,0.1841,0.1842,0.1852,0.1852,0.1853,0.1873,0.1874,0.1874,0.1874,0.1919,0.1921,0.1922,0.1929,0,0,0.1927,0.1928,0,0,0,0,0,0,0,0,0.1821,0.1823,0.1839,0.184,0.1842,0.1859,0.1861,0.1879,0.1873,0.1863,0.1874,0.1874,0.19,0.1904,0.1909,0.1931,0.1933,0.1927,0.1928,0.1929,0.193,0,0,0,0,0,0,0,0.1819,0.1822,0.1839,0.1839,0.1841,0.1846,0.1849,0.1864,0.1882,0.1864,0.1865,0.1866,0.1902,0.1907,0.191,0.1934,0.1927,0.1929,0.193,0.193,0.2027,0.2029,0,0,0,0,0,0,0.1814,0.1821,0.1839,0.184,0.183,0.1847,0.185,0.1854,0.1881,0.1885,0.1865,0.1866,0.1905,0.1908,0.1912,0.1956,0.1929,0.1931,0.1932,0.2026,0.2027,0.2029,0,0,0,0,0,0,0.1813,0.1815,0.1838,0.1829,0.1833,0.1847,0.1852,0.1855,0.1863,0.1882,0.1886,0.1871,0.1905,0.191,0.1943,0.1956,0.1931,0.1933,0.2024,0.2026,0.2028,0.2021,0,0,0,0,0,0,0.1812,0.1815,0.1817,0.1829,0.1833,0.1844,0.1851,0.1855,0.1862,0.1864,0.1888,0.1893,0.1905,0.194,0.1945,0.1958,0.1934,0.2022,0.2025,0.2028,0.202,0.2023,0.2026,0,0,0,0,0,0.1812,0.181,0.1817,0.1819,0.1835,0.1843,0.1846,0.1857,0.1862,0.1866,0.1894,0.1892,0.1962,0.1943,0.1947,0.1962,0.202,0.2024,0.2027,0.2018,0.2022,0.2026,0,0,0,0,0,0,0.1799,0.1812,0.182,0.1823,0.1833,0.1846,0.1847,0.1857,0.1881,0.1885,0.1906,0.1913,0.1951,0.1961,0.1939,0.2003,0.1993,0.1998,0.1985,0.1989,0.1992,0.1983,0.1936,0,0,0,0,0,0.1797,0.1802,0.1815,0.1818,0.1821,0.1835,0.184,0.1849,0.1869,0.1879,0.1897,0.1929,0.1969,0.1981,0.2011,0.2036,0.2052,0.2054,0.2057,0.2059,0.2058,0.2095,0.2101,0.2041,0.2041,0.2041,0,0,0.1791,0.18,0.1802,0.1816,0.1823,0.183,0.1839,0.1844,0.186,0.1881,0.1905,0.1938,0.1981,0.2018,0.2035,0.2026,0.2089,0.2064,0.2065,0.2063,0.2099,0.2105,0.211,0.2043,0.2043,0.2042,0,0,0.1779,0.179,0.1789,0.1798,0.1809,0.1823,0.1825,0.184,0.1856,0.1885,0.1917,0.1957,0.1998,0.2036,0.2062,0.2101,0.2108,0.2114,0.2115,0.2151,0.2155,0.2159,0.2194,0.2201,0.211,0.211,0.211,0,0.1771,0.1775,0.1789,0.1791,0.1798,0.182,0.1822,0.1844,0.1871,0.189,0.1893,0.1983,0.201,0.2075,0.2093,0.2106,0.2127,0.2091,0.2152,0.2157,0.2161,0.2195,0.2203,0.211,0.211,0.211,0.211,0,0.176,0.1764,0.1762,0.1777,0.1789,0.1792,0.1822,0.1841,0.1863,0.1889,0.195,0.1997,0.2049,0.2071,0.2093,0.2148,0.2153,0.2153,0.2133,0.2166,0.2201,0.2209,0.2111,0.2111,0.2111,0.2111,0,0,0.1737,0.1751,0.175,0.1756,0.1781,0.179,0.182,0.1855,0.1881,0.1919,0.1959,0.2034,0.2057,0.209,0.2127,0.2158,0.2209,0.2165,0.2167,0.2184,0.229,0.2268,0.2275,0.2215,0.2216,0.2217,0.2304,0,0.1723,0.172,0.1737,0.1744,0.1746,0.1781,0.181,0.1849,0.1889,0.1932,0.1994,0.2045,0.2067,0.2095,0.2134,0.2195,0.223,0.2186,0.227,0.2272,0.2236,0.2284,0.2203,0.2271,0.2312,0.2313,0.2314,0,0.1707,0.1709,0.1705,0.1733,0.1738,0.1751,0.1802,0.1832,0.1904,0.1935,0.1995,0.2041,0.2114,0.2117,0.2228,0.2198,0.2244,0.2283,0.2287,0.2272,0.2266,0.2246,0.2284,0.2152,0.2327,0.2326,0.2325,0,0.1682,0.169,0.1688,0.1694,0.1727,0.174,0.1767,0.1829,0.1861,0.1934,0.1962,0.2054,0.2096,0.2173,0.2255,0.2245,0.2365,0.2359,0.2386,0.2385,0.2336,0.2328,0.2241,0.2431,0.2431,0.2431,0.243,0,0.1662,0.1662,0.1673,0.1671,0.1682,0.1717,0.1746,0.1787,0.1848,0.1888,0.1959,0.2004,0.2109,0.2189,0.2263,0.2354,0.2375,0.2398,0.241,0.2333,0.2324,0.2222,0.2154,0.2434,0.2433,0.2432,0.2432,0,0.1638,0.1643,0.164,0.166,0.1667,0.1676,0.1719,0.1748,0.1803,0.1855,0.1876,0.1974,0.2076,0.2184,0.2309,0.2355,0.2365,0.2471,0.2374,0.2372,0.226,0.2195,0.2087,0.2063,0.2517,0.2517,0.2517,0,0.1629,0.162,0.1622,0.1621,0.1627,0.1644,0.1664,0.1719,0.175,0.1837,0.1862,0.1963,0.2037,0.2214,0.2321,0.245,0.2354,0.2429,0.2392,0.2246,0.2183,0.2078,0.2058,0.2333,0.2331,0.233,0.2329,0,0.1611,0.1605,0.1601,0.1594,0.16,0.1613,0.1641,0.1654,0.1724,0.1763,0.1829,0.1889,0.2052,0.2135,0.2288,0.2367,0.2266,0.2407,0.228,0.2052,0.1907,0.1891,0.2282,0.2318,0.2319,0.232,0.2321,0.2321,0.1599,0.1586,0.1577,0.1575,0.1576,0.1583,0.1582,0.1613,0.1645,0.1691,0.1773,0.1838,0.1935,0.2142,0.2203,0.219,0.2205,0.2133,0.2079,0.1994,0.1918,0.2283,0.2312,0.2313,0.2314,0.2314,0.2315,0,0.159,0.1576,0.1566,0.1554,0.1548,0.156,0.1571,0.1562,0.1571,0.1631,0.168,0.1746,0.18,0.1882,0.1909,0.1845,0.1822,0.1784,0.1599,0.1614,0.1961,0.1899,0.1806,0.1806,0.1807,0.1807,0.1807,0.1807,0.1585,0.1568,0.1561,0.1537,0.1527,0.15,0.1495,0.1473,0.1496,0.1498,0.1521,0.1569,0.157,0.1473,0.1407,0.1434,0.132,0.1262,0.1277,0.1472,0.1499,0.1524,0.1448,0.1262,0.1262,0.0899,0.0895,0.0892]},{"header":{"parameterUnit":"m.s-1","parameterCategory":2,"la1":30.2991,"la2":30.254,"lo1":-89.0895,"lo2":-89.0444,"dy":0.0017,"dx":0.0017,"nx":28,"ny":28,"refTime":"2024-10-15T03:00:00:Z","depth":"0","parameterNumber":3,"parameterNumberName":"V-component_of_CURRENTS"},"data":[0,0,0,0,0,0,0,0,0,0,0,0,0,0,0,0,0,0,0,0,0,0,0,0,0,0,0,0,0,0,0,0,0,0,0,0,0,0,0,0,0,0,0,0,0,0,0,0,0,0,0,0,0,0,0,0,0,0,-0.0037,-0.0037,0,-0.0016,-0.0016,-0.0016,-0.0038,-0.0039,-0.004,-0.0041,-0.0108,-0.0109,-0.011,0,0,0,0,0,0,0,0,0,0,0,0,0,-0.0121,-0.0119,-0.0037,-0.0037,-0.0037,-0.0016,-0.0016,-0.0016,-0.0038,-0.0039,-0.004,-0.0041,-0.0108,-0.0109,-0.0111,0,0,0,0,0,0,0,0,0,0,0,0,0,-0.0091,-0.0118,-0.0037,-0.0045,-0.0046,-0.0016,-0.0016,-0.0016,-0.0038,-0.0039,-0.004,-0.0042,-0.0108,-0.0109,-0.0111,-0.0094,0,0,-0.0115,-0.0116,0,0,0,0,0,0,0,0,-0.0092,-0.0088,-0.0044,-0.0045,-0.0045,-0.0031,-0.007,-0.0046,-0.0037,-0.0041,-0.0041,-0.0042,-0.009,-0.0093,-0.0085,-0.0097,-0.01,-0.0115,-0.0116,-0.0117,-0.0117,0,0,0,0,0,0,0,-0.0094,-0.0089,-0.0029,-0.0044,-0.0044,-0.0058,-0.0055,-0.0066,-0.006,-0.0041,-0.0042,-0.0039,-0.0091,-0.0083,-0.0087,-0.0101,-0.0115,-0.0117,-0.0118,-0.0118,-0.0131,-0.0131,0,0,0,0,0,0,-0.0094,-0.009,-0.003,-0.0028,-0.0072,-0.0056,-0.0052,-0.0034,-0.0058,-0.0062,-0.0038,-0.004,-0.008,-0.0085,-0.009,-0.0098,-0.0117,-0.0118,-0.0119,-0.0132,-0.0131,-0.0131,0,0,0,0,0,0,-0.0095,-0.0088,-0.003,-0.006,-0.0054,-0.0053,-0.0033,-0.0033,-0.003,-0.0055,-0.0062,-0.0035,-0.0081,-0.0087,-0.0096,-0.01,-0.0119,-0.012,-0.0133,-0.0132,-0.0131,-0.0099,0,0,0,0,0,0,-0.0097,-0.0088,-0.0075,-0.0059,-0.0052,-0.0011,-0.0031,-0.0032,-0.0026,-0.0029,-0.0054,-0.0061,-0.0083,-0.0094,-0.0098,-0.0103,-0.0122,-0.0133,-0.0132,-0.0131,-0.0101,-0.0097,-0.0094,0,0,0,0,0,-0.01,-0.0077,-0.0074,-0.0067,-0.0033,-0.001,-0.0007,-0.0012,-0.0024,-0.0015,-0.0034,-0.0061,-0.0091,-0.0094,-0.0099,-0.0105,-0.0134,-0.0133,-0.0131,-0.0102,-0.0098,-0.0094,0,0,0,0,0,0,-0.0109,-0.0077,-0.0073,-0.0042,-0.0027,-0.0014,-0.0006,-0.0008,-0.0011,-0.002,-0.0048,-0.0056,-0.0066,-0.0083,-0.0086,-0.0104,-0.0119,-0.0119,-0.0095,-0.0091,-0.0088,-0.0098,-0.0123,0,0,0,0,0,-0.0102,-0.0075,-0.0053,-0.0028,-0.0019,-0.0011,-0.0003,-0.0004,-0.0005,-0.0008,-0.0025,-0.0046,-0.0062,-0.0075,-0.0088,-0.0093,-0.0117,-0.0101,-0.0098,-0.0095,-0.0105,-0.0143,-0.0145,-0.0127,-0.0127,-0.0127,0,0,-0.0097,-0.0077,-0.0061,-0.0028,-0.0017,-0.0002,-0.001,0.0006,0.001,-0.0015,-0.0019,-0.0032,-0.0058,-0.0066,-0.0074,-0.0084,-0.0105,-0.0093,-0.0091,-0.0103,-0.0142,-0.0144,-0.0146,-0.0126,-0.0126,-0.0126,0,0,-0.008,-0.0057,-0.0033,-0.0018,0.0002,0.0008,0.0013,0.0027,0.0022,0.0027,0.0004,-0.0011,-0.0026,-0.005,-0.0064,-0.0049,-0.0083,-0.0051,-0.0049,-0.0085,-0.0088,-0.009,-0.0096,-0.0099,-0.0054,-0.0054,-0.0054,0,-0.0082,-0.0045,-0.0024,-0.0004,0.0006,0.0012,0.0028,0.0031,0.0037,0.003,0.0027,-0.0004,-0.0022,-0.0048,-0.0042,-0.0044,-0.006,-0.0063,-0.0082,-0.0086,-0.0089,-0.0094,-0.0098,-0.0052,-0.0052,-0.0053,-0.0053,0,-0.0051,-0.0026,-0.0011,0.0017,0.0031,0.0049,0.0055,0.006,0.0055,0.005,0.0033,0.0014,-0.001,-0.0014,-0.0024,-0.0054,-0.0054,-0.0071,-0.0095,-0.0089,-0.0094,-0.0099,-0.005,-0.005,-0.0051,-0.0051,0,0,-0.0052,0.0,0.0003,0.0016,0.0042,0.0056,0.0063,0.0067,0.006,0.0056,0.0043,0.002,0.0005,-0.0011,-0.0028,-0.0059,-0.0079,-0.0072,-0.0075,-0.0082,-0.0139,-0.0074,-0.0074,-0.0103,-0.0104,-0.0105,-0.0124,0,-0.004,0.0001,0.0023,0.005,0.0067,0.0075,0.0081,0.0081,0.0076,0.0065,0.0035,0.002,0.0007,-0.0003,-0.0035,-0.0068,-0.0095,-0.0071,-0.0141,-0.0143,-0.0091,-0.0079,0.0007,0.0002,-0.0129,-0.013,-0.0131,0,-0.0026,0.0001,0.0033,0.0063,0.007,0.0082,0.0085,0.0093,0.0077,0.0071,0.0046,0.0027,-0.0008,-0.0022,-0.0087,-0.0071,-0.0105,-0.0132,-0.0134,-0.0095,-0.0089,-0.0031,-0.0002,-0.001,-0.0139,-0.0138,-0.0138,0,-0.0045,0.0001,0.0025,0.0038,0.0073,0.0078,0.009,0.0087,0.0087,0.007,0.0066,0.0023,0.0006,-0.0052,-0.0082,-0.0096,-0.0145,-0.0176,-0.0151,-0.0146,-0.0098,-0.0086,-0.0092,-0.0236,-0.0236,-0.0236,-0.0236,0,-0.0047,-0.0031,0.0018,0.0029,0.0046,0.0073,0.0077,0.0082,0.0082,0.008,0.0064,0.0059,-0.0006,-0.0031,-0.0078,-0.0104,-0.0142,-0.0148,-0.0151,-0.0078,-0.0065,-0.0091,-0.012,-0.0237,-0.0237,-0.0237,-0.0237,0,-0.0075,-0.004,-0.0015,0.0026,0.0038,0.0047,0.0075,0.0075,0.0085,0.0082,0.0079,0.0075,0.0065,0.0025,-0.0047,-0.0083,-0.0105,-0.0129,-0.0014,-0.0003,0.0004,-0.0027,-0.0026,-0.0017,-0.0123,-0.0121,-0.012,0,-0.0086,-0.0072,-0.0026,-0.0013,0.0004,0.0026,0.0038,0.0064,0.007,0.0097,0.0094,0.0105,0.0133,0.0095,0.0051,0.0009,-0.0031,0.003,0.0005,0.0024,-0.0015,-0.0014,-0.0008,0.0089,0.0091,0.0094,0.0095,0,-0.0111,-0.0094,-0.0071,-0.0043,-0.0025,0.0,0.0024,0.0035,0.0068,0.01,0.0146,0.0184,0.0195,0.0231,0.0202,0.0157,0.0069,0.0074,0.0048,0.0117,0.0159,0.0162,0.0097,0.0116,0.0114,0.0112,0.0111,0.011,-0.0139,-0.0128,-0.0097,-0.0074,-0.005,-0.0022,0.0009,0.0053,0.0103,0.0192,0.0204,0.033,0.037,0.0368,0.0308,0.027,0.0206,0.0238,0.0191,0.0184,0.022,0.0224,0.0267,0.0266,0.0265,0.0264,0.0263,0,-0.017,-0.0148,-0.0129,-0.0091,-0.0069,-0.0046,0.0004,0.0062,0.0154,0.0276,0.0368,0.0529,0.0567,0.054,0.0481,0.0406,0.0368,0.0355,0.0356,0.0345,0.0315,0.0354,0.0474,0.0474,0.0474,0.0474,0.0474,0.0474,-0.0183,-0.0171,-0.0152,-0.0117,-0.0086,-0.0028,0.0013,0.0126,0.0242,0.0462,0.0624,0.0728,0.0762,0.0613,0.0521,0.0476,0.041,0.0427,0.0345,0.0307,0.0292,0.0278,0.0308,0.0417,0.0417,0.0441,0.0441,0.044]}],[{"header":{"parameterUnit":"m.s-1","parameterCategory":2,"la1":30.2991,"la2":30.254,"lo1":-89.0895,"lo2":-89.0444,"dy":0.0017,"dx":0.0017,"nx":28,"ny":28,"refTime":"2024-10-15T03:00:00:Z","depth":"2","parameterNumber":2,"parameterNumberName":"U-component_of_CURRENTS"},"data":[0,0,0,0,0,0,0,0,0,0,0,0,0,0,0,0,0,0,0,0,0,0,0,0,0,0,0,0,0,0,0,0,0,0,0,0,0,0,0,0,0,0,0,0,0,0,0,0,0,0,0,0,0,0,0,0,0,0,0.084,0.0841,0,0.0867,0.0867,0.0868,0.0877,0.0876,0.0876,0.0876,0.0924,0.0926,0.0927,0,0,0,0,0,0,0,0,0,0,0,0,0,0.0844,0.0844,0.084,0.0841,0.0841,0.0867,0.0867,0.0868,0.0877,0.0876,0.0876,0.0876,0.0924,0.0926,0.0927,0,0,0,0,0,0,0,0,0,0,0,0,0,0.0855,0.0844,0.084,0.0847,0.0848,0.0867,0.0867,0.0868,0.0877,0.0876,0.0876,0.0876,0.0923,0.0925,0.0928,0.0951,0,0,0.0935,0.0936,0,0,0,0,0,0,0,0,0.0855,0.0856,0.0846,0.0846,0.0847,0.0866,0.0886,0.0896,0.0877,0.0868,0.0876,0.0875,0.0906,0.091,0.0918,0.0953,0.0955,0.0935,0.0936,0.0937,0.0938,0,0,0,0,0,0,0,0.0854,0.0855,0.0853,0.0846,0.0847,0.0864,0.0865,0.0889,0.0891,0.0868,0.0869,0.0869,0.0907,0.0916,0.0919,0.0956,0.0935,0.0937,0.0938,0.0939,0.1084,0.1087,0,0,0,0,0,0,0.0845,0.0854,0.0852,0.0853,0.0848,0.0864,0.0865,0.0862,0.089,0.0893,0.0869,0.0869,0.0912,0.0917,0.0921,0.1,0.0937,0.094,0.0941,0.1082,0.1085,0.1087,0,0,0,0,0,0,0.0845,0.0844,0.0851,0.0853,0.0855,0.0864,0.0861,0.0863,0.0877,0.089,0.0894,0.0881,0.0912,0.0918,0.0969,0.1,0.0941,0.0943,0.1079,0.1083,0.1086,0.1126,0,0,0,0,0,0,0.0845,0.0844,0.0845,0.0852,0.0854,0.0868,0.0861,0.0864,0.0876,0.0877,0.0902,0.0905,0.0912,0.0966,0.0971,0.1002,0.0945,0.1076,0.1081,0.1085,0.1122,0.1131,0.1138,0,0,0,0,0,0.0845,0.0842,0.0845,0.0845,0.0853,0.0868,0.0872,0.0878,0.0877,0.0888,0.092,0.0905,0.0999,0.097,0.0976,0.1008,0.1074,0.1079,0.1085,0.1118,0.1129,0.1138,0,0,0,0,0,0,0.0849,0.0842,0.0846,0.0843,0.0859,0.0869,0.0875,0.0884,0.0916,0.0921,0.0934,0.0942,0.1001,0.1005,0.0972,0.1067,0.1035,0.1041,0.1058,0.1068,0.1077,0.1071,0.0947,0,0,0,0,0,0.0849,0.0843,0.085,0.0852,0.0856,0.0869,0.0878,0.0887,0.0911,0.0924,0.0943,0.0978,0.1029,0.1047,0.1083,0.1129,0.1129,0.1157,0.1165,0.1172,0.1174,0.1223,0.1235,0.1106,0.1106,0.1105,0,0,0.0854,0.0848,0.0847,0.0852,0.0861,0.0878,0.0874,0.0889,0.0917,0.0926,0.0971,0.1008,0.105,0.1111,0.1136,0.1115,0.1207,0.1179,0.1184,0.1183,0.123,0.1242,0.1253,0.1109,0.1109,0.1108,0,0,0.0855,0.0852,0.0848,0.086,0.0873,0.0887,0.0893,0.0913,0.0936,0.0988,0.1013,0.107,0.1125,0.1167,0.1197,0.1273,0.1254,0.1287,0.1317,0.1365,0.1375,0.1384,0.1381,0.139,0.1285,0.1285,0.1285,0,0.0865,0.0856,0.0855,0.0859,0.0871,0.0892,0.0908,0.0939,0.0979,0.101,0.1009,0.1126,0.1155,0.1245,0.1279,0.129,0.1298,0.127,0.1373,0.1382,0.1391,0.1386,0.1395,0.1288,0.1287,0.1287,0.1287,0,0.0864,0.0865,0.0865,0.0876,0.0895,0.0911,0.0948,0.0982,0.1014,0.1049,0.1139,0.1193,0.1259,0.1287,0.1309,0.1397,0.1375,0.1379,0.1339,0.1406,0.1397,0.1405,0.1291,0.129,0.129,0.1289,0,0,0.0873,0.0865,0.0867,0.0872,0.0906,0.0919,0.0976,0.1033,0.1071,0.1134,0.1192,0.1299,0.1323,0.1361,0.1396,0.1444,0.151,0.1441,0.1442,0.1421,0.1585,0.1393,0.1383,0.1535,0.1537,0.1539,0.1546,0,0.0879,0.0873,0.0881,0.0905,0.0909,0.095,0.0997,0.1056,0.1113,0.1174,0.1255,0.132,0.1353,0.1385,0.1449,0.1496,0.1538,0.1505,0.1538,0.1538,0.1346,0.1389,0.1292,0.1276,0.1554,0.1555,0.1556,0,0.0883,0.0875,0.0881,0.0906,0.0914,0.0939,0.1011,0.1057,0.1156,0.12,0.1288,0.1339,0.1435,0.1442,0.1558,0.1536,0.157,0.1599,0.1599,0.1411,0.1361,0.1261,0.128,0.157,0.1569,0.1568,0.1567,0,0.0877,0.0885,0.0884,0.0892,0.0923,0.0947,0.0978,0.1065,0.1106,0.1208,0.1241,0.1365,0.1408,0.1496,0.1558,0.1568,0.1656,0.1667,0.1525,0.1511,0.1427,0.1399,0.175,0.175,0.175,0.175,0.175,0,0.088,0.0884,0.0873,0.0873,0.0886,0.0923,0.0965,0.1018,0.1095,0.1139,0.1243,0.1287,0.1428,0.1493,0.156,0.1544,0.1655,0.1526,0.1505,0.1433,0.1407,0.1667,0.1657,0.175,0.175,0.175,0.175,0,0.0879,0.0871,0.0864,0.0873,0.0876,0.0886,0.0927,0.0959,0.1032,0.1089,0.1115,0.1236,0.1303,0.1407,0.1524,0.1498,0.1529,0.1502,0.137,0.133,0.1353,0.1346,0.1336,0.1329,0.1323,0.1319,0.1315,0,0.0878,0.0867,0.0846,0.0829,0.0828,0.0841,0.0852,0.0921,0.0949,0.1047,0.1063,0.1145,0.1158,0.1214,0.1227,0.1248,0.1405,0.115,0.1138,0.1332,0.1315,0.1316,0.1317,0.1059,0.1053,0.1049,0.1045,0,0.0865,0.0848,0.0826,0.0784,0.0773,0.0774,0.079,0.0796,0.0876,0.09,0.0929,0.0932,0.096,0.0921,0.0916,0.0932,0.1129,0.1043,0.1334,0.1138,0.1061,0.1046,0.1059,0.1003,0.1008,0.1011,0.1013,0.1015,0.0838,0.081,0.076,0.0722,0.0711,0.0689,0.0678,0.0691,0.069,0.0708,0.0744,0.0708,0.0694,0.0594,0.0629,0.0705,0.0763,0.0786,0.0807,0.0832,0.0757,0.067,0.0525,0.0526,0.0527,0.0528,0.0529,0,0.0771,0.0737,0.07,0.0637,0.0598,0.0633,0.0623,0.0601,0.0563,0.0562,0.0532,0.0387,0.0314,0.0421,0.0432,0.0389,0.0465,0.0433,0.0573,0.0609,0.0642,0.0568,0.0281,0.0281,0.0281,0.0281,0,0,0.0725,0.0649,0.0621,0.0523,0.0507,0.048,0.0471,0.0458,0.0445,0.0348,0.0312,0.0208,0.0268,0.0205,0.0222,0.0296,0.0461,0.0281,0.0464,0.0659,0.0693,0.0808,0.0724,0,0,0,0,0]},{"header":{"parameterUnit":"m.s-1","parameterCategory":2,"la1":30.2991,"la2":30.254,"lo1":-89.0895,"lo2":-89.0444,"dy":0.0017,"dx":0.0017,"nx":28,"ny":28,"refTime":"2024-10-15T03:00:00:Z","depth":"2","parameterNumber":3,"parameterNumberName":"V-component_of_CURRENTS"},"data":[0,0,0,0,0,0,0,0,0,0,0,0,0,0,0,0,0,0,0,0,0,0,0,0,0,0,0,0,0,0,0,0,0,0,0,0,0,0,0,0,0,0,0,0,0,0,0,0,0,0,0,0,0,0,0,0,0,0,0.0444,0.0444,0,0.0437,0.0437,0.0437,0.0394,0.0393,0.0392,0.0391,0.0277,0.0275,0.0273,0,0,0,0,0,0,0,0,0,0,0,0,0,0.0431,0.0431,0.0444,0.0444,0.0444,0.0437,0.0437,0.0437,0.0395,0.0393,0.0392,0.039,0.0277,0.0275,0.0272,0,0,0,0,0,0,0,0,0,0,0,0,0,0.0433,0.0432,0.0444,0.0421,0.0419,0.0437,0.0437,0.0437,0.0395,0.0393,0.0391,0.039,0.0278,0.0275,0.0272,0.0288,0,0,0.0263,0.0262,0,0,0,0,0,0,0,0,0.0433,0.0433,0.0425,0.0423,0.042,0.0414,0.039,0.0382,0.0395,0.0405,0.0391,0.0389,0.0313,0.0307,0.0313,0.0283,0.0278,0.0263,0.0261,0.026,0.0259,0,0,0,0,0,0,0,0.0433,0.0433,0.0443,0.0425,0.0422,0.0414,0.0412,0.0389,0.0368,0.0404,0.0401,0.0399,0.0311,0.0316,0.0309,0.0276,0.0263,0.026,0.0258,0.0257,0.0187,0.0187,0,0,0,0,0,0,0.0433,0.0434,0.0443,0.0442,0.0421,0.0415,0.0414,0.0419,0.037,0.0362,0.04,0.0397,0.0322,0.0313,0.0305,0.0285,0.026,0.0257,0.0255,0.0187,0.0187,0.0187,0,0,0,0,0,0,0.0432,0.0434,0.0443,0.0436,0.0437,0.0417,0.0423,0.0419,0.0419,0.0368,0.0357,0.0402,0.032,0.0309,0.0278,0.0281,0.0256,0.0253,0.0187,0.0187,0.0187,0.0268,0,0,0,0,0,0,0.0432,0.0434,0.0441,0.0437,0.0437,0.0457,0.0425,0.042,0.042,0.0415,0.0367,0.0355,0.0318,0.0282,0.0275,0.0277,0.0251,0.0187,0.0187,0.0187,0.0265,0.027,0.0275,0,0,0,0,0,0.0432,0.0445,0.0442,0.0443,0.0447,0.0458,0.0459,0.0439,0.0421,0.0431,0.0389,0.0356,0.0275,0.0281,0.0271,0.0273,0.0187,0.0187,0.0187,0.0263,0.0269,0.0275,0,0,0,0,0,0,0.0436,0.0442,0.0438,0.045,0.0456,0.045,0.0456,0.0446,0.0427,0.0415,0.0364,0.035,0.0321,0.0287,0.0294,0.0249,0.0222,0.0221,0.0283,0.0289,0.0294,0.0319,0.0248,0,0,0,0,0,0.0445,0.0458,0.046,0.0471,0.0476,0.047,0.0472,0.0463,0.0444,0.0435,0.0397,0.0351,0.0317,0.0295,0.026,0.0245,0.022,0.0235,0.0239,0.0244,0.0257,0.0225,0.0229,0.0186,0.0186,0.0186,0,0,0.0446,0.0453,0.0458,0.0473,0.0476,0.0492,0.0467,0.0476,0.0482,0.0424,0.0411,0.037,0.0317,0.0295,0.0278,0.0264,0.0243,0.0244,0.0248,0.0259,0.0225,0.0229,0.0233,0.0186,0.0186,0.0186,0,0,0.0461,0.0468,0.0485,0.0498,0.0509,0.051,0.0515,0.0511,0.0501,0.0494,0.0445,0.0412,0.0363,0.0328,0.0303,0.0315,0.0272,0.0293,0.0339,0.0308,0.0311,0.0314,0.0297,0.0298,0.0294,0.0294,0.0294,0,0.0458,0.0487,0.0492,0.0515,0.0528,0.052,0.0544,0.0542,0.0524,0.0521,0.0494,0.0429,0.0382,0.0358,0.0356,0.0329,0.0306,0.0325,0.0317,0.0319,0.0321,0.0302,0.0302,0.0298,0.0297,0.0297,0.0297,0,0.0489,0.0514,0.0527,0.0556,0.0573,0.0593,0.0595,0.06,0.0585,0.0577,0.0553,0.0496,0.0457,0.0432,0.0398,0.0384,0.0364,0.0331,0.031,0.033,0.0308,0.0307,0.0303,0.0302,0.0301,0.03,0,0,0.0471,0.0535,0.0539,0.0568,0.0598,0.0616,0.0635,0.0652,0.0664,0.0635,0.0642,0.0582,0.0553,0.0523,0.0471,0.0442,0.0434,0.0397,0.0394,0.0395,0.0375,0.0393,0.0392,0.0398,0.0398,0.0398,0.0359,0,0.0491,0.0547,0.0574,0.0627,0.0658,0.0673,0.0695,0.0708,0.0704,0.0706,0.0658,0.0636,0.0586,0.0563,0.0533,0.0457,0.0432,0.0448,0.0342,0.034,0.0364,0.0392,0.0349,0.0313,0.0357,0.0357,0.0356,0,0.0509,0.0549,0.0604,0.0675,0.0689,0.0714,0.0757,0.0777,0.0783,0.0779,0.0761,0.0721,0.0682,0.0628,0.0537,0.0549,0.0475,0.0416,0.0412,0.0402,0.0354,0.0295,0.0308,0.0353,0.0354,0.0354,0.0354,0,0.0496,0.0571,0.0617,0.064,0.071,0.0733,0.0765,0.0792,0.0815,0.0819,0.0826,0.0783,0.0747,0.0667,0.0556,0.0543,0.0455,0.0415,0.0364,0.0364,0.0294,0.0289,0.0351,0.0351,0.0351,0.0351,0.0351,0,0.0506,0.0544,0.0614,0.0638,0.0695,0.0741,0.079,0.0816,0.085,0.0878,0.0854,0.0852,0.0751,0.0689,0.0589,0.0488,0.0479,0.0388,0.0359,0.0322,0.032,0.0323,0.032,0.035,0.035,0.035,0.0351,0,0.0482,0.0529,0.0585,0.0662,0.0689,0.0723,0.0807,0.0844,0.0875,0.0908,0.0909,0.0896,0.0821,0.0723,0.059,0.0527,0.0425,0.0381,0.0359,0.033,0.0348,0.0349,0.0337,0.0337,0.0337,0.0338,0.0338,0,0.0478,0.0503,0.0587,0.062,0.0654,0.0718,0.0766,0.0837,0.0881,0.0928,0.0943,0.0898,0.0856,0.0707,0.0572,0.0429,0.0415,0.0334,0.0305,0.0376,0.0348,0.0349,0.035,0.0236,0.0236,0.0235,0.0235,0,0.0463,0.0485,0.0528,0.0598,0.0653,0.0732,0.0808,0.085,0.0929,0.0955,0.0979,0.0949,0.0811,0.0652,0.0495,0.0407,0.0364,0.0322,0.0382,0.0264,0.0282,0.0255,0.0259,0.023,0.0231,0.0231,0.0231,0.0232,0.0438,0.0459,0.0513,0.0581,0.0649,0.0741,0.0787,0.086,0.0928,0.0953,0.0956,0.086,0.0682,0.0426,0.0344,0.0303,0.0314,0.0266,0.0266,0.0267,0.028,0.03,0.0253,0.0254,0.0254,0.0255,0.0255,0,0.0412,0.0447,0.0503,0.0595,0.0675,0.0716,0.0812,0.0848,0.0896,0.089,0.0869,0.0627,0.0455,0.0327,0.0244,0.0196,0.0181,0.0195,0.0162,0.0166,0.0171,0.0177,0.0124,0.0124,0.0124,0.0123,0,0,0.0398,0.0437,0.0478,0.0603,0.067,0.0746,0.0786,0.0815,0.081,0.0793,0.0698,0.0517,0.0375,0.0234,0.0172,0.0179,0.0198,0.018,0.0287,0.0262,0.0267,0.0209,0.0225,0,0,0,0,0]}],[{"header":{"parameterUnit":"m.s-1","parameterCategory":2,"la1":30.2991,"la2":30.254,"lo1":-89.0895,"lo2":-89.0444,"dy":0.0017,"dx":0.0017,"nx":28,"ny":28,"refTime":"2024-10-15T03:00:00:Z","depth":"4","parameterNumber":2,"parameterNumberName":"U-component_of_CURRENTS"},"data":[0,0,0,0,0,0,0,0,0,0,0,0,0,0,0,0,0,0,0,0,0,0,0,0,0,0,0,0,0,0,0,0,0,0,0,0,0,0,0,0,0,0,0,0,0,0,0,0,0,0,0,0,0,0,0,0,0,0,-0.0574,-0.0574,0,-0.0619,-0.062,-0.062,-0.0602,-0.0601,-0.06,-0.06,-0.0613,-0.0615,-0.0616,0,0,0,0,0,0,0,0,0,0,0,0,0,-0.0502,-0.0503,-0.0573,-0.0574,-0.0575,-0.0619,-0.062,-0.062,-0.0602,-0.0601,-0.06,-0.0599,-0.0613,-0.0614,-0.0616,0,0,0,0,0,0,0,0,0,0,0,0,0,-0.0537,-0.0504,-0.0573,-0.0573,-0.0574,-0.0619,-0.062,-0.062,-0.0603,-0.0601,-0.06,-0.0599,-0.0613,-0.0614,-0.0616,-0.0652,0,0,-0.0621,-0.0622,0,0,0,0,0,0,0,0,-0.0535,-0.0539,-0.0573,-0.0573,-0.0574,-0.0606,-0.06,-0.063,-0.0603,-0.0589,-0.06,-0.0598,-0.0611,-0.0612,-0.0621,-0.0652,-0.0653,-0.0621,-0.0622,-0.0623,-0.0624,0,0,0,0,0,0,0,-0.0532,-0.0537,-0.0589,-0.0574,-0.0575,-0.0582,-0.0585,-0.0605,-0.0604,-0.059,-0.059,-0.0599,-0.061,-0.0619,-0.0621,-0.0653,-0.0621,-0.0623,-0.0624,-0.0625,-0.0712,-0.0713,0,0,0,0,0,0,-0.0532,-0.0535,-0.0588,-0.0591,-0.0554,-0.0584,-0.0588,-0.0595,-0.0604,-0.0606,-0.06,-0.0598,-0.0617,-0.0619,-0.0621,-0.0642,-0.0623,-0.0625,-0.0626,-0.071,-0.0712,-0.0713,0,0,0,0,0,0,-0.053,-0.0536,-0.0586,-0.0566,-0.0573,-0.0587,-0.0595,-0.0597,-0.0591,-0.0613,-0.0612,-0.0592,-0.0616,-0.0619,-0.0639,-0.0643,-0.0626,-0.0627,-0.0709,-0.0711,-0.0713,-0.0698,0,0,0,0,0,0,-0.0528,-0.0535,-0.0554,-0.0566,-0.0574,-0.0607,-0.0597,-0.0598,-0.0601,-0.0598,-0.0606,-0.0607,-0.0615,-0.0636,-0.0641,-0.0645,-0.0629,-0.0707,-0.071,-0.0712,-0.0697,-0.0699,-0.0701,0,0,0,0,0,-0.0525,-0.0544,-0.0555,-0.0562,-0.0595,-0.0608,-0.0613,-0.0617,-0.0602,-0.0605,-0.0613,-0.0606,-0.0654,-0.0639,-0.0643,-0.0648,-0.0706,-0.0709,-0.0712,-0.0696,-0.0698,-0.0701,0,0,0,0,0,0,-0.0523,-0.0545,-0.0556,-0.0582,-0.0596,-0.0606,-0.062,-0.0612,-0.0621,-0.0614,-0.0621,-0.0624,-0.0643,-0.0656,-0.0639,-0.0685,-0.068,-0.0684,-0.0666,-0.0669,-0.0671,-0.0665,-0.063,0,0,0,0,0,-0.0535,-0.0555,-0.0571,-0.0595,-0.0601,-0.0609,-0.0618,-0.0611,-0.0618,-0.0619,-0.0619,-0.0635,-0.0664,-0.0672,-0.0693,-0.0718,-0.0732,-0.0728,-0.073,-0.0731,-0.0733,-0.0771,-0.0776,-0.0723,-0.0723,-0.0723,0,0,-0.0543,-0.0559,-0.0572,-0.0597,-0.0609,-0.0625,-0.0609,-0.0613,-0.0626,-0.0622,-0.0632,-0.0638,-0.0674,-0.07,-0.071,-0.0707,-0.0753,-0.0735,-0.0735,-0.0736,-0.0774,-0.0779,-0.0784,-0.0725,-0.0724,-0.0724,0,0,-0.0555,-0.058,-0.0594,-0.0607,-0.0622,-0.0632,-0.0628,-0.0624,-0.0625,-0.0636,-0.0645,-0.0663,-0.068,-0.0719,-0.0742,-0.0776,-0.0763,-0.0766,-0.0769,-0.0806,-0.081,-0.0814,-0.0828,-0.0833,-0.0767,-0.0767,-0.0767,0,-0.0564,-0.0585,-0.0601,-0.0614,-0.0628,-0.0632,-0.064,-0.0657,-0.0656,-0.0664,-0.0635,-0.0683,-0.0702,-0.0769,-0.0767,-0.0782,-0.0777,-0.0751,-0.0807,-0.0811,-0.0815,-0.0828,-0.0834,-0.0766,-0.0766,-0.0766,-0.0766,0,-0.0579,-0.0601,-0.0608,-0.0635,-0.0652,-0.0657,-0.0679,-0.0684,-0.0672,-0.0681,-0.0709,-0.0732,-0.075,-0.0767,-0.0768,-0.0814,-0.0792,-0.0802,-0.0793,-0.0819,-0.0832,-0.0838,-0.0766,-0.0766,-0.0766,-0.0766,0,0,-0.0575,-0.061,-0.0617,-0.0625,-0.0656,-0.0663,-0.07,-0.073,-0.0744,-0.0743,-0.0763,-0.0806,-0.0779,-0.0804,-0.0813,-0.0847,-0.0865,-0.0814,-0.0816,-0.0813,-0.0909,-0.0793,-0.0789,-0.0861,-0.0862,-0.0863,-0.0901,0,-0.0579,-0.0604,-0.0626,-0.0651,-0.0659,-0.0683,-0.0714,-0.0743,-0.0759,-0.0779,-0.0816,-0.082,-0.0809,-0.0784,-0.0824,-0.0856,-0.0881,-0.0852,-0.0897,-0.0898,-0.0781,-0.0793,-0.0868,-0.0906,-0.0907,-0.0909,-0.0909,0,-0.0585,-0.0597,-0.061,-0.0644,-0.0649,-0.0651,-0.0691,-0.0717,-0.0772,-0.0774,-0.0796,-0.0806,-0.0849,-0.0823,-0.0898,-0.0862,-0.0872,-0.0904,-0.0906,-0.0807,-0.0794,-0.088,-0.0921,-0.092,-0.0919,-0.0918,-0.0918,0,-0.0563,-0.0595,-0.0599,-0.0608,-0.0639,-0.0628,-0.0637,-0.0687,-0.0715,-0.0737,-0.0751,-0.0804,-0.0811,-0.0849,-0.0893,-0.087,-0.0983,-0.0972,-0.0893,-0.0885,-0.0985,-0.0981,-0.1025,-0.1025,-0.1025,-0.1025,-0.1025,0,-0.0552,-0.0572,-0.0566,-0.0562,-0.0543,-0.0571,-0.0568,-0.0587,-0.0636,-0.0678,-0.0707,-0.0737,-0.0809,-0.0882,-0.0907,-0.0913,-0.099,-0.0888,-0.0887,-0.0977,-0.0972,-0.0989,-0.0984,-0.1026,-0.1026,-0.1026,-0.1026,0,-0.0534,-0.0547,-0.0543,-0.0535,-0.0521,-0.0489,-0.0499,-0.0527,-0.0551,-0.0608,-0.0602,-0.0689,-0.0718,-0.0823,-0.0903,-0.0913,-0.0949,-0.0939,-0.1026,-0.1031,-0.0817,-0.0812,-0.0821,-0.0818,-0.0814,-0.0812,-0.0809,0,-0.0531,-0.0518,-0.0493,-0.0467,-0.0442,-0.0408,-0.0411,-0.0447,-0.0498,-0.0575,-0.0618,-0.0648,-0.0697,-0.0737,-0.0817,-0.0862,-0.0862,-0.0895,-0.0843,-0.0798,-0.0797,-0.0797,-0.0796,-0.0804,-0.0803,-0.0803,-0.0802,0,-0.0507,-0.0493,-0.0481,-0.0416,-0.0383,-0.039,-0.0392,-0.0399,-0.0476,-0.0542,-0.0566,-0.0572,-0.0618,-0.0648,-0.07,-0.0741,-0.088,-0.0861,-0.0867,-0.0818,-0.0778,-0.078,-0.0783,-0.0791,-0.0792,-0.0793,-0.0794,0,-0.0492,-0.0463,-0.0434,-0.0371,-0.0355,-0.0352,-0.035,-0.0386,-0.0418,-0.051,-0.0508,-0.0544,-0.0598,-0.0585,-0.0641,-0.0653,-0.0621,-0.0635,-0.0652,-0.0665,-0.0596,-0.0521,-0.0449,0,0,0,0,0,-0.0474,-0.0445,-0.0399,-0.0329,-0.0321,-0.0322,-0.0364,-0.0388,-0.0451,-0.0448,-0.0469,-0.0485,-0.0479,-0.0498,-0.0472,-0.0565,-0.0639,-0.0537,-0.0667,-0.0729,-0.0742,-0.0676,0,0,0,0,0,0,-0.0464,-0.0437,-0.0399,-0.0325,-0.0277,-0.0286,-0.0309,-0.0349,-0.0351,-0.04,-0.0389,-0.0452,-0.0449,-0.0469,-0.0455,-0.0468,-0.054,-0.0567,-0.0566,-0.0722,-0.0733,-0.0744,-0.068,0,0,0,0,0]},{"header":{"parameterUnit":"m.s-1","parameterCategory":2,"la1":30.2991,"la2":30.254,"lo1":-89.0895,"lo2":-89.0444,"dy":0.0017,"dx":0.0017,"nx":28,"ny":28,"refTime":"2024-10-15T03:00:00:Z","depth":"4","parameterNumber":3,"parameterNumberName":"V-component_of_CURRENTS"},"data":[0,0,0,0,0,0,0,0,0,0,0,0,0,0,0,0,0,0,0,0,0,0,0,0,0,0,0,0,0,0,0,0,0,0,0,0,0,0,0,0,0,0,0,0,0,0,0,0,0,0,0,0,0,0,0,0,0,0,0.0124,0.0123,0,0.0088,0.0087,0.0087,0.0072,0.0072,0.0072,0.0073,0.004,0.0039,0.0038,0,0,0,0,0,0,0,0,0,0,0,0,0,0.0152,0.0152,0.0124,0.0123,0.0123,0.0088,0.0087,0.0086,0.0072,0.0072,0.0072,0.0073,0.004,0.0039,0.0038,0,0,0,0,0,0,0,0,0,0,0,0,0,0.0128,0.0151,0.0124,0.0113,0.0112,0.0088,0.0087,0.0086,0.0072,0.0072,0.0073,0.0073,0.0041,0.0039,0.0037,0.0019,0,0,0.0032,0.0031,0,0,0,0,0,0,0,0,0.013,0.0127,0.0115,0.0114,0.0113,0.0087,0.0085,0.0065,0.0072,0.0085,0.0073,0.0073,0.0057,0.0054,0.0043,0.0017,0.0016,0.0032,0.0031,0.003,0.003,0,0,0,0,0,0,0,0.0131,0.0128,0.0107,0.0115,0.0113,0.0101,0.0098,0.0081,0.0067,0.0084,0.0083,0.0082,0.0056,0.0045,0.0042,0.0015,0.0032,0.0031,0.0029,0.0029,-0.0019,-0.002,0,0,0,0,0,0,0.0141,0.013,0.0109,0.0106,0.0125,0.01,0.0097,0.0093,0.0067,0.0065,0.0082,0.0082,0.0047,0.0044,0.0041,0.0012,0.003,0.0029,0.0028,-0.0019,-0.0019,-0.002,0,0,0,0,0,0,0.0142,0.0139,0.011,0.0119,0.0115,0.01,0.0095,0.0092,0.0074,0.0067,0.0063,0.0067,0.0048,0.0043,0.0018,0.0011,0.0028,0.0026,-0.0019,-0.0019,-0.002,-0.0042,0,0,0,0,0,0,0.0142,0.014,0.0144,0.012,0.0115,0.0095,0.0095,0.0091,0.0074,0.0073,0.0052,0.005,0.0048,0.002,0.0016,0.0009,0.0025,-0.0019,-0.0019,-0.002,-0.0041,-0.0043,-0.0045,0,0,0,0,0,0.0144,0.0143,0.0144,0.0142,0.012,0.0095,0.009,0.008,0.0073,0.0064,0.0047,0.0051,0.0015,0.0018,0.0013,0.0006,-0.0018,-0.0019,-0.0019,-0.004,-0.0042,-0.0045,0,0,0,0,0,0,0.0157,0.0141,0.0141,0.0136,0.0119,0.0093,0.0087,0.0073,0.005,0.0046,0.0037,0.0033,0.0013,0.001,0.0014,-0.0007,0.0003,0.0001,-0.0011,-0.0014,-0.0015,-0.0008,0.0024,0,0,0,0,0,0.0163,0.0159,0.0139,0.0136,0.0127,0.0104,0.0093,0.0078,0.0056,0.0046,0.0027,0.0014,0.0007,-0.0003,-0.0013,-0.0035,-0.001,-0.0038,-0.004,-0.0042,-0.0038,-0.0011,-0.001,-0.0022,-0.0022,-0.0022,0,0,0.017,0.016,0.0159,0.014,0.0125,0.0105,0.0097,0.0072,0.0058,0.0045,0.0015,0.0002,-0.0,-0.0019,-0.0028,-0.0024,-0.0024,-0.0043,-0.0044,-0.0039,-0.0011,-0.001,-0.0009,-0.0022,-0.0022,-0.0022,0,0,0.0169,0.0168,0.0159,0.0141,0.0116,0.0102,0.0093,0.0054,0.0043,0.001,0.0005,-0.0009,-0.004,-0.0034,-0.0035,-0.0053,-0.0035,-0.0063,-0.0072,-0.0046,-0.0045,-0.0043,-0.0002,0.0003,-0.0066,-0.0066,-0.0066,0,0.0178,0.016,0.0152,0.0131,0.0113,0.0099,0.0072,0.0063,0.002,0.0007,-0.0,-0.0036,-0.0038,-0.0043,-0.0051,-0.0055,-0.004,-0.0064,-0.0048,-0.0046,-0.0044,-0.0003,0.0003,-0.0067,-0.0067,-0.0067,-0.0067,0,0.016,0.0146,0.0135,0.011,0.0092,0.0064,0.0048,0.0027,0.0007,-0.0007,-0.0031,-0.0039,-0.0059,-0.0059,-0.0064,-0.0058,-0.0051,-0.0052,-0.0041,-0.0044,-0.0,0.0007,-0.0069,-0.0068,-0.0068,-0.0068,0,0,0.0172,0.0131,0.0129,0.0101,0.007,0.0046,0.0033,0.0008,-0.0011,-0.0031,-0.0055,-0.0058,-0.0072,-0.0072,-0.0077,-0.0056,-0.0026,-0.0059,-0.0057,-0.0016,0.0035,-0.0034,-0.0032,-0.0036,-0.0035,-0.0034,0.0063,0,0.0156,0.0115,0.0099,0.0054,0.0022,0.0004,-0.0011,-0.003,-0.0046,-0.0069,-0.0056,-0.0077,-0.0071,-0.0092,-0.007,-0.0049,-0.0011,-0.0051,0.003,0.0034,-0.0026,-0.0028,-0.0031,0.0069,0.007,0.0071,0.0072,0,0.0139,0.0108,0.0068,0.0006,-0.001,-0.0027,-0.0068,-0.0085,-0.0093,-0.0109,-0.0115,-0.0119,-0.01,-0.0093,-0.0027,-0.0062,-0.0011,0.0023,0.0027,-0.0025,-0.0024,0.0071,0.0085,0.0084,0.0083,0.0082,0.0081,0,0.0138,0.0081,0.0047,0.0027,-0.0031,-0.0049,-0.0073,-0.0093,-0.0113,-0.0126,-0.0147,-0.013,-0.0128,-0.0069,-0.001,-0.0025,0.0074,0.007,0.0074,0.0071,0.0116,0.0114,0.0146,0.0146,0.0145,0.0145,0.0145,0,0.0115,0.0084,0.0046,0.0022,-0.0025,-0.006,-0.0097,-0.0119,-0.0143,-0.0173,-0.0165,-0.0186,-0.0127,-0.0077,-0.001,0.0044,0.0084,0.0075,0.0085,0.0106,0.01,0.0122,0.0118,0.0149,0.0148,0.0147,0.0147,0,0.011,0.0092,0.0044,-0.001,-0.0024,-0.0056,-0.0107,-0.0144,-0.0157,-0.0193,-0.0201,-0.0213,-0.0187,-0.0105,-0.001,0.0033,0.0107,0.0133,0.0164,0.0174,0.0092,0.0085,0.0129,0.0127,0.0125,0.0124,0.0123,0,0.0097,0.0079,0.0034,0.0009,-0.0014,-0.0058,-0.0097,-0.0137,-0.0178,-0.0217,-0.0245,-0.0239,-0.024,-0.0136,-0.0066,0.006,0.0077,0.0144,0.0099,0.0081,0.0087,0.0083,0.0079,0.0121,0.012,0.012,0.012,0,0.006,0.0066,0.0027,-0.0008,-0.0048,-0.0115,-0.017,-0.0185,-0.0243,-0.0246,-0.0288,-0.0267,-0.0247,-0.0187,-0.0087,0.0007,0.0103,0.0128,0.0132,0.009,0.0072,0.0079,0.0077,0.0114,0.0115,0.0116,0.0116,0,0.0039,0.0011,-0.0017,-0.0052,-0.0097,-0.0172,-0.0192,-0.0252,-0.0288,-0.0313,-0.0325,-0.0302,-0.0283,-0.0215,-0.0122,-0.0054,-0.0051,-0.0001,0.0009,0.0016,-0.0068,-0.0109,-0.0114,0,0,0,0,0,0.0004,-0.0033,-0.007,-0.0128,-0.0163,-0.0193,-0.0258,-0.0278,-0.0294,-0.0329,-0.0327,-0.0314,-0.0254,-0.0233,-0.0182,-0.0164,-0.0038,-0.0101,0.0027,0.0085,0.0091,0.0003,0,0,0,0,0,0,-0.0035,-0.0068,-0.0088,-0.0173,-0.0204,-0.0283,-0.0313,-0.0333,-0.035,-0.0339,-0.0311,-0.029,-0.0232,-0.0278,-0.0176,-0.0161,-0.0071,-0.0069,-0.0068,0.0082,0.0087,0.0092,0.0004,0,0,0,0,0]}]]